This is the latest recevied weather packets stored in our database for station/object DG2GGP-11. If no packets are shown the sender has not sent any weather packets the latest 10 day(s).
| Time | Temp. | Humidity | Pressure | Rain* | Wind** | Luminosity | Snow |
|---|---|---|---|---|---|---|---|
| 1777715357 | 22.78° C | 33% | 1022.9 hPa | 0 mm | - | 48 W/m² | - |
| 1777714757 | 22.78° C | 33% | 1023 hPa | 0 mm | - | 51 W/m² | - |
| 1777714157 | 23.33° C | 32% | 1023.1 hPa | 0 mm | - | 47 W/m² | - |
| 1777713557 | 22.78° C | 34% | 1023.2 hPa | 0 mm | - | 45 W/m² | - |
| 1777712957 | 22.78° C | 36% | 1023.2 hPa | 0 mm | - | 48 W/m² | - |
| 1777712357 | 22.78° C | 36% | 1023.3 hPa | 0 mm | - | 48 W/m² | - |
| 1777711757 | 22.22° C | 37% | 1023.4 hPa | 0 mm | - | 47 W/m² | - |
| 1777711157 | 22.22° C | 40% | 1023.4 hPa | 0 mm | - | 46 W/m² | - |
| 1777710557 | 21.11° C | 39% | 1023.5 hPa | 0 mm | - | 46 W/m² | - |
| 1777709957 | 20.56° C | 40% | 1023.5 hPa | 0 mm | - | 43 W/m² | - |
| 1777709357 | 18.89° C | 41% | 1023.5 hPa | 0 mm | - | 42 W/m² | - |
| 1777708757 | 18.89° C | 44% | 1023.5 hPa | 0 mm | - | 42 W/m² | - |
| 1777708157 | 17.78° C | 47% | 1023.5 hPa | 0 mm | - | 40 W/m² | - |
| 1777707557 | 17.78° C | 48% | 1023.6 hPa | 0 mm | - | 38 W/m² | - |
| 1777706957 | 17.78° C | 47% | 1023.7 hPa | 0 mm | - | 38 W/m² | - |
| 1777706357 | 16.67° C | 49% | 1023.7 hPa | 0 mm | - | 37 W/m² | - |
| 1777705757 | 16.11° C | 50% | 1023.7 hPa | 0 mm | - | 29 W/m² | - |
| 1777705157 | 15° C | 53% | 1023.8 hPa | 0 mm | - | 30 W/m² | - |
| 1777704557 | 14.44° C | 56% | 1023.8 hPa | 0 mm | - | 30 W/m² | - |
| 1777703957 | 12.78° C | 59% | 1023.8 hPa | 0 mm | - | 32 W/m² | - |
| 1777703357 | 12.22° C | 60% | 1023.8 hPa | 0 mm | - | 23 W/m² | - |
| 1777702757 | 11.67° C | 63% | 1023.8 hPa | 0 mm | - | 25 W/m² | - |
| 1777702157 | 10° C | 67% | 1023.8 hPa | 0 mm | - | 22 W/m² | - |
| 1777701557 | 8.89° C | 69% | 1023.7 hPa | 0 mm | - | 18 W/m² | - |
| 1777700957 | 7.78° C | 73% | 1023.8 hPa | 0 mm | - | 15 W/m² | - |
* Rain latest hour (hover to see other rain measurements)
** Current wind speed in m/s (hover to see current wind gust speed)